Content
SEND FEEDBACK

Daily
Averages
Monthly
Summary
United States of America

ELLSTON, IOWA


Home > North America > United States > Iowa
Elevation: 1159 feet     Latitude: 40 49N     Longitude: 094 03W

WEATHER
 
SELECT A DAY
Number of Records: 171,198;   Date Range: 1/1/95 - 7/22/14
 
SHARE

PRINT THIS DATA

[ ← Previous Day ]
WEATHER ALMANAC - JANUARY 31, 2013
[ Next Day → ]
[ °C ]   °F
Weather ElementAverageHighLow
Temperature6.9 °F14 °F (1:53 am)-0.9 °F (10:53 pm)
Dewpoint-2.2 °F8.1 °F (1:53 am)-9 °F (10:53 pm)
Humidity66.4 %80 % (2:53 am)60 % (4:53 pm)
Barometer30.20 in30.47 in (11:53 pm)29.95 in (1:53 am)
Wind Speed17.5 mph26.5 mph (1:05 pm)
Wind Gust34.5 mph (12:53 pm)
Weather ElementAverage
Visibility9.4 mi
Wind DirectionWNW (300.7 °)

Weather ElementTotal
Precipitation---
Heating Degree Days58.5 (Base 65)
Averaged from 27 records on January 31, 2013
WEATHER CONDITIONS BREAKOUT
WIND DIRECTION BREAKOUT
WEATHER BY HOUR - JANUARY 31, 2013
[ °C ]   °F
Local TimeTemperatureDewpointHumidityBarometerVisibilityWind DirectionWind SpeedGust SpeedPrecipitationEventsConditions
1:53 AM14.0 °F8.1 °F77 %29.95 in10.0 miWest (280°)11.5 mphClear
2:53 AM12.0 °F7.0 °F80 %29.96 in10.0 miWest (280°)10.4 mphClear
3:53 AM10.0 °F5.0 °F80 %29.96 in10.0 miWest (280°)9.2 mphClear
4:53 AM10.9 °F5.0 °F77 %29.97 in10.0 miWNW (300°)13.8 mphOvercast
5:53 AM10.9 °F3.9 °F73 %30.00 in10.0 miWNW (300°)18.4 mphOvercast
6:53 AM10.0 °F1.9 °F70 %30.03 in10.0 miNW (310°)13.8 mphOvercast
7:53 AM7.0 °F-2.9 °F64 %30.05 in10.0 miNW (320°)16.1 mph25.3 mphClear
8:53 AM7.0 °F-4.0 °F61 %30.09 in10.0 miNW (320°)18.4 mphClear
9:53 AM8.1 °F-2.9 °F61 %30.13 in10.0 miNW (310°)19.6 mphClear
10:53 AM9.0 °F-2.0 °F61 %30.17 in10.0 miWNW (300°)20.7 mphScattered Clouds
11:53 AM9.0 °F-0.9 °F64 %30.19 in10.0 miNW (320°)24.2 mph32.2 mphMostly Cloudy
12:53 PM8.1 °F-2.9 °F61 %30.22 in6.0 miNW (310°)25.3 mph34.5 mphSnowBlowing Snow
1:05 PM8.6 °F-2.2 °F62 %30.16 in10.0 miNW (310°)26.5 mph33.4 mphOvercast
2:06 PM8.6 °F-2.2 °F62 %30.17 in10.0 miNW (310°)21.9 mph32.2 mphScattered Clouds
2:15 PM8.6 °F-2.2 °F62 %30.18 in10.0 miNW (310°)20.7 mph26.5 mphMostly Cloudy
2:32 PM8.6 °F-0.4 °F67 %30.19 in2.0 miWNW (290°)26.5 mph31.1 mph0.00 inSnowLight Snow
2:43 PM8.6 °F-2.2 °F62 %30.19 in6.0 miWNW (300°)20.7 mph31.1 mph0.00 inHaze
2:53 PM7.0 °F-2.9 °F64 %30.27 in10.0 miWNW (300°)23.0 mph31.1 mph0.00 inOvercast
3:53 PM6.1 °F-4.0 °F63 %30.30 in9.0 miNW (310°)25.3 mph33.4 mphScattered Clouds
4:53 PM6.1 °F-5.1 °F60 %30.32 in10.0 miNW (310°)15.0 mph27.6 mphClear
5:53 PM3.9 °F-7.1 °F60 %30.35 in10.0 miNW (320°)16.1 mphClear
6:53 PM3.0 °F-7.1 °F63 %30.37 in10.0 miWNW (300°)17.3 mphClear
7:53 PM1.9 °F-7.1 °F66 %30.40 in10.0 miWNW (300°)13.8 mphClear
8:53 PM1.0 °F-8.0 °F66 %30.43 in10.0 miWNW (290°)11.5 mphClear
9:53 PM1.0 °F-8.0 °F66 %30.43 in10.0 miWNW (290°)10.4 mphClear
10:53 PM-0.9 °F-9.0 °F69 %30.46 in10.0 miWest (270°)10.4 mphClear
11:53 PM-0.9 °F-8.0 °F72 %30.47 in10.0 miWest (280°)11.5 mphClear
Hourly data recorded from KLWD, located miles away from Ellston, Iowa







STORIES FROM OUR PARTNERS